FW0705 Weather Reports


time (UTC)temp
F
wind
direction
speed
knots
gust
knots
rain 1hr
in
rain 24hr
in
rain mn
in
humidity
%
barometer
mb
20260902132117 61 123 1.7 11.3 0.00 0.02 0.02 93 1014.1
20260902130458 62 111 2.6 10.4 0.00 0.02 0.02 89 1014.4
20260902122117 62 209 2.6 7.0 0.00 0.02 0.02 90 1014.8
20260902115117 62 341 1.7 8.7 0.00 0.02 0.02 89 1015.1
20260902112118 61 197 0.9 6.1 0.01 0.02 0.02 91 1015.7
20260902105114 60 209 0.9 5.2 0.01 0.02 0.02 93 1016.0
20260902102115 60 182 0.9 7.0 0.00 0.01 0.01 92 1016.5
20260902095113 59 90 1.7 5.2 0.01 0.01 0.01 92 1016.7
20260902092112 59 217 0.9 2.6 0.01 0.01 0.01 92 1016.7
20260902085113 58 223 0.9 3.5 0.00 0.00 0.00 93 1016.9
20260902082110 58 240 0.9 6.1 0.00 0.00 0.00 93 1017.0
20260902075112 58 247 0.9 3.5 0.00 0.00 0.00 94 1016.8
20260902072112 58 190 0.9 3.5 0.00 0.00 0.00 94 1016.9
20260902065110 57 219 0.9 4.3 0.00 0.00 0.00 94 1016.6
20260902062112 57 257 0.9 1.7 0.00 0.00 0.00 93 1016.8
20260902055108 57 257 0.0 3.5 0.00 0.00 0.00 93 1016.7
20260902052106 57 259 0.9 2.6 0.00 0.00 0.00 93 1016.6
20260902045109 57 261 0.0 2.6 0.00 0.00 0.00 93 1016.6
20260902043444 57 261 0.0 3.5 0.00 0.00 0.00 92 1016.5
20260902035107 56 261 0.9 3.5 0.00 0.00 0.00 92 1016.7
20260902032106 56 306 0.9 2.6 0.00 0.00 0.00 92 1016.9
20260902025108 56 315 0.9 4.3 0.00 0.00 0.00 92 1017.0
20260902022104 56 255 0.0 3.5 0.00 0.00 0.00 92 1017.3
20260902015103 56 255 0.9 3.5 0.00 0.00 0.00 91 1017.4
20260902012104 57 206 0.9 6.1 0.00 0.00 0.00 90 1017.2
20260902010440 58 279 0.9 5.2 0.00 0.00 0.00 90 1017.4
20260902003451 58 278 0.9 4.3 0.00 0.00 0.00 89 1017.6
20260901235103 58 303 0.9 6.1 0.00 0.00 0.00 89 1017.7
20260901232103 58 221 0.9 3.5 0.00 0.00 0.00 88 1017.4
20260901225102 58 291 0.9 6.1 0.00 0.00 0.00 88 1018.0
20260901222101 59 204 0.9 4.3 0.00 0.00 0.00 86 1018.0
20260901215102 59 242 0.0 2.6 0.00 0.00 0.00 85 1018.0
20260901212101 60 198 0.0 6.1 0.00 0.00 0.00 83 1018.0
20260901205102 60 198 0.9 5.2 0.00 0.00 0.00 80 1018.1
20260901203510 61 276 0.9 7.0 0.00 0.00 0.00 79 1018.1
20260901195103 61 266 0.9 4.3 0.00 0.00 0.00 79 1017.8
20260901192100 62 296 0.9 7.0 0.00 0.00 0.00 78 1017.8
20260901185103 62 256 2.6 6.1 0.00 0.00 0.00 76 1017.8
20260901182100 63 281 1.7 7.8 0.00 0.00 0.00 74 1017.6
20260901180437 63 279 2.6 9.6 0.00 0.00 0.00 72 1017.6
20260901172057 64 259 1.7 9.6 0.00 0.00 0.00 70 1017.5
20260901165057 65 308 2.6 8.7 0.00 0.00 0.00 70 1017.5
20260901162056 66 281 2.6 13.0 0.00 0.00 0.00 69 1017.4
20260901155055 67 299 1.7 7.0 0.00 0.00 0.00 72 1017.3
20260901153450 63 302 0.9 4.3 0.00 0.00 0.00 80 1017.7
20260901145056 64 304 0.9 3.5 0.00 0.00 0.00 80 1017.7
20260901142054 64 196 1.7 6.1 0.00 0.00 0.00 76 1018.0
20260901135053 67 280 2.6 7.8 0.00 0.00 0.00 69 1017.8